Time,TemperatureF,DewpointF,PressureIn,WindDirection,WindDirectionDegrees,WindSpeedMPH,WindSpeedGustMPH,Humidity,HourlyPrecipIn,Conditions,Clouds,dailyrainin,SoftwareType,DateUTC
2013-03-22 00:02:00,38.0,34.0,30.19,SE,125,0.0,3.0,87,0.00,,,0.02,,2013-03-22 07:02:00,
2013-03-22 00:11:00,38.0,34.0,30.19,SE,125,0.0,3.0,87,0.00,,,0.02,,2013-03-22 07:11:00,
2013-03-22 00:22:00,38.0,34.0,30.20,SE,142,0.0,3.0,87,0.00,,,0.02,,2013-03-22 07:22:00,
2013-03-22 00:32:00,37.0,34.0,30.20,SE,145,0.0,3.0,88,0.00,,,0.02,,2013-03-22 07:32:00,
2013-03-22 00:42:00,37.0,34.0,30.20,SE,145,0.0,3.0,88,0.00,,,0.02,,2013-03-22 07:42:00,
2013-03-22 00:52:00,36.0,33.0,30.20,SW,232,1.0,4.0,88,0.00,,,0.02,,2013-03-22 07:52:00,
2013-03-22 01:02:00,36.0,33.0,30.20,SSW,203,0.0,4.0,89,0.00,,,0.02,,2013-03-22 08:02:00,
2013-03-22 01:12:00,36.0,33.0,30.20,SSW,203,0.0,4.0,89,0.00,,,0.02,,2013-03-22 08:12:00,
2013-03-22 01:22:00,35.0,32.0,30.19,SW,218,1.0,4.0,89,0.00,,,0.02,,2013-03-22 08:22:00,
2013-03-22 01:31:00,35.0,32.0,30.20,SW,232,0.0,3.0,90,0.00,,,0.02,,2013-03-22 08:31:00,
2013-03-22 01:42:00,35.0,32.0,30.20,SW,232,0.0,3.0,90,0.00,,,0.02,,2013-03-22 08:42:00,
2013-03-22 01:52:00,35.0,32.0,30.20,SW,229,1.0,3.0,89,0.00,,,0.02,,2013-03-22 08:52:00,
2013-03-22 02:01:00,34.0,31.0,30.21,SW,223,0.0,1.0,90,0.00,,,0.02,,2013-03-22 09:01:00,
2013-03-22 02:11:00,34.0,31.0,30.21,SW,223,0.0,1.0,90,0.00,,,0.02,,2013-03-22 09:11:00,
2013-03-22 02:22:00,34.0,31.0,30.21,SW,223,1.0,3.0,90,0.00,,,0.02,,2013-03-22 09:22:00,
2013-03-22 02:32:00,34.0,31.0,30.22,South,182,2.0,4.0,90,0.00,,,0.02,,2013-03-22 09:32:00,
2013-03-22 02:42:00,34.0,31.0,30.22,South,182,2.0,4.0,90,0.00,,,0.02,,2013-03-22 09:42:00,
2013-03-22 02:53:00,34.0,31.0,30.22,SSW,211,3.0,7.0,90,0.00,,,0.02,,2013-03-22 09:53:00,
2013-03-22 03:02:00,34.0,31.0,30.22,WNW,284,0.0,4.0,90,0.00,,,0.02,,2013-03-22 10:02:00,
2013-03-22 03:12:00,34.0,31.0,30.22,WNW,284,0.0,4.0,90,0.00,,,0.02,,2013-03-22 10:12:00,
2013-03-22 03:22:00,34.0,31.0,30.23,SSW,196,2.0,4.0,90,0.00,,,0.02,,2013-03-22 10:22:00,
2013-03-22 03:32:00,34.0,31.0,30.22,WSW,239,1.0,4.0,90,0.00,,,0.02,,2013-03-22 10:32:00,
2013-03-22 03:42:00,34.0,31.0,30.22,WSW,239,1.0,4.0,90,0.00,,,0.02,,2013-03-22 10:42:00,
2013-03-22 03:52:00,35.0,32.0,30.22,South,190,0.0,5.0,90,0.00,,,0.02,,2013-03-22 10:52:00,
2013-03-22 04:02:00,35.0,32.0,30.23,WNW,293,0.0,4.0,90,0.00,,,0.02,,2013-03-22 11:02:00,
2013-03-22 04:12:00,35.0,32.0,30.23,WNW,293,0.0,4.0,90,0.00,,,0.02,,2013-03-22 11:12:00,
2013-03-22 04:22:00,34.0,31.0,30.24,SSW,201,0.0,1.0,90,0.00,,,0.02,,2013-03-22 11:22:00,
2013-03-22 04:32:00,34.0,31.0,30.24,SSW,204,2.0,4.0,90,0.00,,,0.02,,2013-03-22 11:32:00,
2013-03-22 04:42:00,34.0,31.0,30.24,SSW,204,2.0,4.0,90,0.00,,,0.02,,2013-03-22 11:42:00,
2013-03-22 04:52:00,34.0,31.0,30.24,SSW,208,2.0,4.0,89,0.00,,,0.02,,2013-03-22 11:52:00,
2013-03-22 05:01:00,35.0,32.0,30.24,South,182,0.0,4.0,89,0.00,,,0.02,,2013-03-22 12:01:00,
2013-03-22 05:12:00,35.0,32.0,30.23,West,267,0.0,2.0,90,0.00,,,0.02,,2013-03-22 12:12:00,
2013-03-22 05:22:00,35.0,32.0,30.23,West,267,0.0,2.0,90,0.00,,,0.02,,2013-03-22 12:22:00,
2013-03-22 05:32:00,35.0,32.0,30.23,SSW,209,1.0,4.0,89,0.00,,,0.02,,2013-03-22 12:32:00,
2013-03-22 05:42:00,35.0,32.0,30.23,SSW,209,1.0,4.0,89,0.00,,,0.02,,2013-03-22 12:42:00,
2013-03-22 05:52:00,35.0,32.0,30.23,West,263,0.0,4.0,89,0.00,,,0.02,,2013-03-22 12:52:00,
2013-03-22 06:02:00,35.0,32.0,30.23,WSW,242,0.0,2.0,89,0.00,,,0.02,,2013-03-22 13:02:00,
2013-03-22 06:11:00,35.0,32.0,30.23,WSW,242,0.0,2.0,89,0.00,,,0.02,,2013-03-22 13:11:00,
2013-03-22 06:22:00,35.0,32.0,30.24,SSW,213,2.0,5.0,89,0.00,,,0.02,,2013-03-22 13:22:00,
2013-03-22 06:32:00,35.0,32.0,30.24,WNW,303,0.0,3.0,89,0.00,,,0.02,,2013-03-22 13:32:00,
2013-03-22 06:41:00,35.0,32.0,30.24,WNW,303,0.0,3.0,89,0.00,,,0.02,,2013-03-22 13:41:00,
2013-03-22 06:52:00,35.0,32.0,30.24,SSW,202,2.0,4.0,89,0.00,,,0.02,,2013-03-22 13:52:00,
2013-03-22 07:02:00,34.0,31.0,30.25,SSW,202,0.0,2.0,89,0.00,,,0.02,,2013-03-22 14:02:00,
2013-03-22 07:11:00,34.0,31.0,30.25,SSW,202,0.0,2.0,89,0.00,,,0.02,,2013-03-22 14:11:00,
2013-03-22 07:21:00,34.0,31.0,30.25,SSW,202,0.0,1.0,89,0.00,,,0.02,,2013-03-22 14:21:00,
2013-03-22 07:31:00,33.0,30.0,30.25,SSW,202,1.0,2.0,90,0.00,,,0.02,,2013-03-22 14:31:00,
2013-03-22 07:42:00,33.0,30.0,30.25,SSW,202,1.0,2.0,90,0.00,,,0.02,,2013-03-22 14:42:00,
2013-03-22 07:52:00,33.0,31.0,30.26,SSW,202,0.0,2.0,91,0.00,,,0.02,,2013-03-22 14:52:00,
2013-03-22 08:02:00,33.0,31.0,30.26,SSW,202,0.0,1.0,91,0.00,,,0.02,,2013-03-22 15:02:00,
2013-03-22 08:11:00,33.0,31.0,30.26,SSW,202,0.0,1.0,91,0.00,,,0.02,,2013-03-22 15:11:00,
2013-03-22 08:22:00,34.0,32.0,30.26,SSW,202,0.0,1.0,91,0.00,,,0.02,,2013-03-22 15:22:00,
2013-03-22 08:32:00,34.0,32.0,30.27,SSW,202,0.0,0.0,92,0.00,,,0.02,,2013-03-22 15:32:00,
2013-03-22 08:42:00,34.0,32.0,30.27,SSW,202,0.0,0.0,92,0.00,,,0.02,,2013-03-22 15:42:00,
2013-03-22 08:52:00,35.0,33.0,30.27,SSW,202,0.0,1.0,92,0.01,,,0.03,,2013-03-22 15:52:00,
2013-03-22 09:02:00,35.0,33.0,30.27,SW,235,1.0,3.0,91,0.01,,,0.03,,2013-03-22 16:02:00,
2013-03-22 09:12:00,35.0,33.0,30.28,SW,235,0.0,2.0,91,0.01,,,0.03,,2013-03-22 16:12:00,
2013-03-22 09:22:00,35.0,33.0,30.28,SW,235,0.0,2.0,91,0.01,,,0.03,,2013-03-22 16:22:00,
2013-03-22 09:32:00,36.0,33.0,30.29,SW,235,0.0,1.0,90,0.01,,,0.03,,2013-03-22 16:32:00,
2013-03-22 09:42:00,37.0,34.0,30.28,ENE,72,2.0,3.0,88,0.00,,,0.03,,2013-03-22 16:42:00,
2013-03-22 09:52:00,37.0,34.0,30.28,ENE,72,2.0,3.0,88,0.00,,,0.03,,2013-03-22 16:52:00,
2013-03-22 10:02:00,37.0,34.0,30.29,ENE,76,5.0,7.0,87,0.00,,,0.03,,2013-03-22 17:02:00,
2013-03-22 10:12:00,37.0,34.0,30.29,ENE,69,3.0,5.0,87,0.00,,,0.03,,2013-03-22 17:12:00,
2013-03-22 10:22:00,37.0,34.0,30.29,ENE,69,3.0,5.0,87,0.00,,,0.03,,2013-03-22 17:22:00,
2013-03-22 10:32:00,37.0,34.0,30.29,NE,55,4.0,5.0,87,0.00,,,0.03,,2013-03-22 17:32:00,
2013-03-22 10:42:00,37.0,34.0,30.29,NE,55,4.0,5.0,87,0.00,,,0.03,,2013-03-22 17:42:00,
2013-03-22 10:52:00,37.0,34.0,30.30,ENE,72,3.0,5.0,87,0.00,,,0.03,,2013-03-22 17:52:00,
2013-03-22 11:01:00,37.0,34.0,30.29,ENE,74,3.0,5.0,87,0.00,,,0.03,,2013-03-22 18:01:00,
2013-03-22 11:11:00,37.0,34.0,30.29,ENE,74,3.0,5.0,87,0.00,,,0.03,,2013-03-22 18:11:00,
2013-03-22 11:21:00,38.0,35.0,30.29,ENE,61,3.0,5.0,88,0.00,,,0.03,,2013-03-22 18:21:00,
2013-03-22 11:32:00,39.0,35.0,30.30,ENE,69,3.0,4.0,84,0.00,,,0.03,,2013-03-22 18:32:00,
2013-03-22 11:42:00,39.0,35.0,30.30,ENE,69,3.0,4.0,84,0.00,,,0.03,,2013-03-22 18:42:00,
2013-03-22 11:52:00,40.0,35.0,30.30,ENE,78,3.0,5.0,81,0.00,,,0.03,,2013-03-22 18:52:00,
2013-03-22 12:02:00,40.0,34.0,30.31,ENE,59,3.0,5.0,80,0.00,,,0.03,,2013-03-22 19:02:00,
2013-03-22 12:12:00,40.0,34.0,30.31,ENE,59,3.0,5.0,80,0.00,,,0.03,,2013-03-22 19:12:00,
2013-03-22 12:22:00,40.0,34.0,30.31,ENE,78,2.0,4.0,79,0.00,,,0.03,,2013-03-22 19:22:00,
2013-03-22 12:32:00,40.0,34.0,30.31,ENE,59,2.0,3.0,78,0.00,,,0.03,,2013-03-22 19:32:00,
2013-03-22 12:42:00,40.0,34.0,30.31,ENE,59,2.0,3.0,78,0.00,,,0.03,,2013-03-22 19:42:00,
2013-03-22 12:52:00,41.0,34.0,30.31,NE,48,2.0,4.0,77,0.00,,,0.03,,2013-03-22 19:52:00,
2013-03-22 13:01:00,41.0,35.0,30.31,NE,46,3.0,4.0,79,0.00,,,0.03,,2013-03-22 20:01:00,
2013-03-22 13:11:00,41.0,35.0,30.31,NE,46,3.0,4.0,79,0.00,,,0.03,,2013-03-22 20:11:00,
2013-03-22 13:22:00,41.0,35.0,30.31,ENE,57,3.0,5.0,78,0.00,,,0.03,,2013-03-22 20:22:00,
2013-03-22 13:31:00,42.0,35.0,30.31,NE,55,2.0,4.0,76,0.00,,,0.03,,2013-03-22 20:31:00,
2013-03-22 13:42:00,42.0,35.0,30.31,NE,55,2.0,4.0,76,0.00,,,0.03,,2013-03-22 20:42:00,
2013-03-22 13:52:00,41.0,34.0,30.31,ENE,59,2.0,3.0,77,0.00,,,0.03,,2013-03-22 20:52:00,
2013-03-22 14:02:00,41.0,35.0,30.31,ENE,59,1.0,3.0,79,0.00,,,0.03,,2013-03-22 21:02:00,
2013-03-22 14:11:00,41.0,35.0,30.30,NE,44,1.0,3.0,78,0.00,,,0.03,,2013-03-22 21:11:00,
2013-03-22 14:22:00,41.0,35.0,30.30,NE,44,1.0,3.0,78,0.00,,,0.03,,2013-03-22 21:22:00,
2013-03-22 14:32:00,41.0,34.0,30.30,NE,47,1.0,3.0,77,0.00,,,0.03,,2013-03-22 21:32:00,
2013-03-22 14:42:00,41.0,34.0,30.30,NE,47,1.0,3.0,77,0.00,,,0.03,,2013-03-22 21:42:00,
2013-03-22 14:53:00,42.0,35.0,30.30,ENE,64,2.0,3.0,76,0.00,,,0.03,,2013-03-22 21:53:00,
2013-03-22 15:02:00,43.0,35.0,30.30,ENE,75,3.0,4.0,73,0.00,,,0.03,,2013-03-22 22:02:00,
2013-03-22 15:12:00,43.0,35.0,30.30,ENE,75,3.0,4.0,73,0.00,,,0.03,,2013-03-22 22:12:00,
2013-03-22 15:22:00,43.0,35.0,30.30,NE,54,2.0,4.0,72,0.00,,,0.03,,2013-03-22 22:22:00,
2013-03-22 15:32:00,44.0,35.0,30.30,NE,53,2.0,4.0,70,0.00,,,0.03,,2013-03-22 22:32:00,
2013-03-22 15:42:00,44.0,35.0,30.30,NE,53,2.0,4.0,70,0.00,,,0.03,,2013-03-22 22:42:00,
2013-03-22 15:52:00,44.0,34.0,30.30,NE,53,2.0,3.0,68,0.00,,,0.03,,2013-03-22 22:52:00,
2013-03-22 16:01:00,44.0,34.0,30.30,NE,55,2.0,3.0,67,0.00,,,0.03,,2013-03-22 23:01:00,
2013-03-22 16:11:00,44.0,34.0,30.30,NE,55,2.0,3.0,67,0.00,,,0.03,,2013-03-22 23:11:00,
2013-03-22 16:22:00,45.0,34.0,30.30,NE,49,2.0,4.0,65,0.00,,,0.03,,2013-03-22 23:22:00,
2013-03-22 16:32:00,44.0,33.0,30.30,NE,49,2.0,3.0,64,0.00,,,0.03,,2013-03-22 23:32:00,
2013-03-22 16:42:00,44.0,33.0,30.30,NE,49,2.0,3.0,64,0.00,,,0.03,,2013-03-22 23:42:00,
2013-03-22 16:52:00,45.0,33.0,30.30,NE,46,2.0,4.0,62,0.00,,,0.03,,2013-03-22 23:52:00,
2013-03-22 17:01:00,44.0,31.0,30.30,NE,51,2.0,4.0,61,0.00,,,0.03,,2013-03-23 00:01:00,
2013-03-22 17:12:00,44.0,31.0,30.30,NE,51,2.0,4.0,61,0.00,,,0.03,,2013-03-23 00:12:00,
2013-03-22 17:22:00,44.0,33.0,30.31,NE,49,2.0,4.0,65,0.00,,,0.03,,2013-03-23 00:22:00,
2013-03-22 17:32:00,44.0,32.0,30.31,NE,48,2.0,3.0,63,0.00,,,0.03,,2013-03-23 00:32:00,
2013-03-22 17:42:00,45.0,34.0,30.31,NE,48,1.0,3.0,64,0.00,,,0.03,,2013-03-23 00:42:00,
2013-03-22 17:52:00,45.0,34.0,30.31,NE,48,1.0,3.0,64,0.00,,,0.03,,2013-03-23 00:52:00,
2013-03-22 18:03:00,44.0,33.0,30.31,NE,44,0.0,4.0,64,0.00,,,0.03,,2013-03-23 01:03:00,
2013-03-22 18:22:00,43.0,33.0,30.31,NE,44,1.0,2.0,67,0.00,,,0.03,,2013-03-23 01:22:00,
2013-03-22 18:31:00,43.0,33.0,30.31,NE,44,0.0,2.0,68,0.00,,,0.03,,2013-03-23 01:31:00,
2013-03-22 18:42:00,43.0,33.0,30.31,NE,44,0.0,2.0,68,0.00,,,0.03,,2013-03-23 01:42:00,
2013-03-22 18:52:00,43.0,33.0,30.32,NE,44,0.0,2.0,68,0.00,,,0.03,,2013-03-23 01:52:00,
2013-03-22 19:02:00,42.0,33.0,30.31,NE,44,0.0,2.0,69,0.00,,,0.03,,2013-03-23 02:02:00,
2013-03-22 19:12:00,42.0,33.0,30.31,NE,44,0.0,2.0,69,0.00,,,0.03,,2013-03-23 02:12:00,
2013-03-22 19:22:00,41.0,32.0,30.31,NE,44,0.0,1.0,69,0.00,,,0.02,,2013-03-23 02:22:00,
2013-03-22 19:31:00,41.0,32.0,30.31,NE,44,0.0,1.0,69,0.00,,,0.02,,2013-03-23 02:31:00,
2013-03-22 19:42:00,41.0,32.0,30.31,NE,44,0.0,1.0,69,0.00,,,0.02,,2013-03-23 02:42:00,
2013-03-22 19:52:00,40.0,31.0,30.31,NE,44,0.0,1.0,71,0.00,,,0.02,,2013-03-23 02:52:00,
2013-03-22 20:02:00,39.0,30.0,30.32,NE,44,0.0,1.0,69,0.00,,,0.02,,2013-03-23 03:02:00,
2013-03-22 20:11:00,39.0,30.0,30.32,NE,44,0.0,1.0,69,0.00,,,0.02,,2013-03-23 03:11:00,
2013-03-22 20:22:00,39.0,30.0,30.32,NE,44,0.0,1.0,69,0.00,,,0.01,,2013-03-23 03:22:00,
2013-03-22 20:32:00,39.0,30.0,30.33,NE,44,0.0,1.0,71,0.00,,,0.01,,2013-03-23 03:32:00,
2013-03-22 20:42:00,39.0,30.0,30.33,NE,44,0.0,1.0,71,0.00,,,0.01,,2013-03-23 03:42:00,
2013-03-22 20:53:00,38.0,30.0,30.33,NE,44,0.0,1.0,72,0.00,,,0.01,,2013-03-23 03:53:00,
2013-03-22 21:02:00,38.0,30.0,30.34,NE,44,0.0,1.0,72,0.00,,,0.01,,2013-03-23 04:02:00,
2013-03-22 21:12:00,38.0,30.0,30.34,NE,44,0.0,1.0,72,0.00,,,0.01,,2013-03-23 04:12:00,
2013-03-22 21:22:00,39.0,30.0,30.35,NE,44,1.0,1.0,71,0.00,,,0.01,,2013-03-23 04:22:00,
2013-03-22 21:32:00,39.0,31.0,30.35,NE,44,0.0,1.0,72,0.00,,,0.01,,2013-03-23 04:32:00,
2013-03-22 21:42:00,39.0,31.0,30.35,NE,44,0.0,1.0,72,0.00,,,0.01,,2013-03-23 04:42:00,
2013-03-22 21:53:00,39.0,30.0,30.35,NE,44,1.0,2.0,70,0.00,,,0.01,,2013-03-23 04:53:00,
2013-03-22 22:02:00,38.0,29.0,30.35,NE,44,1.0,1.0,71,0.00,,,0.01,,2013-03-23 05:02:00,
2013-03-22 22:11:00,38.0,29.0,30.35,NE,44,1.0,1.0,71,0.00,,,0.01,,2013-03-23 05:11:00,
2013-03-22 22:22:00,38.0,30.0,30.35,NE,44,1.0,2.0,72,0.00,,,0.01,,2013-03-23 05:22:00,
2013-03-22 22:32:00,38.0,28.0,30.35,NE,44,1.0,2.0,67,0.00,,,0.01,,2013-03-23 05:32:00,
2013-03-22 22:42:00,38.0,28.0,30.35,NE,44,1.0,2.0,67,0.00,,,0.01,,2013-03-23 05:42:00,
2013-03-22 22:52:00,38.0,29.0,30.35,NE,44,1.0,2.0,70,0.00,,,0.01,,2013-03-23 05:52:00,
2013-03-22 23:02:00,36.0,29.0,30.35,NE,44,1.0,2.0,77,0.00,,,0.01,,2013-03-23 06:02:00,
2013-03-22 23:12:00,36.0,29.0,30.35,NE,44,1.0,2.0,77,0.00,,,0.01,,2013-03-23 06:12:00,
2013-03-22 23:22:00,35.0,29.0,30.35,NE,44,1.0,2.0,79,0.00,,,0.01,,2013-03-23 06:22:00,
2013-03-22 23:31:00,36.0,29.0,30.35,NE,44,1.0,2.0,76,0.00,,,0.01,,2013-03-23 06:31:00,
2013-03-22 23:42:00,36.0,29.0,30.35,NE,44,1.0,2.0,76,0.00,,,0.01,,2013-03-23 06:42:00,
2013-03-22 23:52:00,36.0,30.0,30.36,NE,44,1.0,2.0,79,0.00,,,0.01,,2013-03-23 06:52:00,